Time,TemperatureF,DewpointF,PressureIn,WindDirection,WindDirectionDegrees,WindSpeedMPH,WindSpeedGustMPH,Humidity,HourlyPrecipIn,Conditions,Clouds,dailyrainin,SoftwareType,DateUTC
2013-07-30 00:01:00,67.8,56.0,30.01,NNW,338,0.0,0.0,66,0.00,,,0.00,WeatherDisplay:10.37,2013-07-30 04:01:00,
2013-07-30 00:02:00,67.8,56.5,30.01,North,0,0.0,0.0,67,0.00,,,0.00,WeatherDisplay:10.37,2013-07-30 04:02:00,
2013-07-30 00:03:00,67.8,56.0,30.01,NNW,338,0.0,0.0,66,0.00,,,0.00,WeatherDisplay:10.37,2013-07-30 04:03:00,
2013-07-30 00:08:00,67.6,56.3,30.01,ESE,112,0.0,0.0,67,0.00,,,0.00,WeatherDisplay:10.37,2013-07-30 04:08:00,
2013-07-30 00:13:00,67.6,56.3,30.01,NNW,338,0.0,0.0,67,0.00,,,0.00,WeatherDisplay:10.37,2013-07-30 04:13:00,
2013-07-30 00:18:00,67.6,56.3,30.01,WSW,248,0.0,0.0,67,0.00,,,0.00,WeatherDisplay:10.37,2013-07-30 04:18:00,
2013-07-30 00:23:00,67.5,56.5,30.01,SSE,158,0.0,0.0,68,0.00,,,0.00,WeatherDisplay:10.37,2013-07-30 04:23:00,
2013-07-30 00:28:00,67.3,55.9,30.01,SE,135,0.0,0.0,67,0.00,,,0.00,WeatherDisplay:10.37,2013-07-30 04:28:00,
2013-07-30 00:33:00,67.3,56.4,30.02,SE,135,0.0,0.0,68,0.00,,,0.00,WeatherDisplay:10.37,2013-07-30 04:33:00,
2013-07-30 00:38:00,67.1,56.6,30.02,SE,135,0.0,0.0,69,0.00,,,0.00,WeatherDisplay:10.37,2013-07-30 04:38:00,
2013-07-30 00:43:00,66.9,56.4,30.02,SE,135,0.0,0.0,69,0.00,,,0.00,WeatherDisplay:10.37,2013-07-30 04:43:00,
2013-07-30 00:48:00,66.7,56.6,30.02,SE,135,0.0,0.0,70,0.00,,,0.00,WeatherDisplay:10.37,2013-07-30 04:48:00,
2013-07-30 00:53:00,66.6,56.9,30.02,SE,135,0.0,0.0,71,0.00,,,0.00,WeatherDisplay:10.37,2013-07-30 04:53:00,
2013-07-30 00:58:00,66.4,56.7,30.02,SE,135,0.0,0.0,71,0.00,,,0.00,WeatherDisplay:10.37,2013-07-30 04:58:00,
2013-07-30 01:03:00,66.0,56.3,30.02,SE,135,0.0,0.0,71,0.00,,,0.00,WeatherDisplay:10.37,2013-07-30 05:03:00,
2013-07-30 01:08:00,66.0,56.3,30.02,SE,135,0.0,0.0,71,0.00,,,0.00,WeatherDisplay:10.37,2013-07-30 05:08:00,
2013-07-30 01:13:00,65.8,56.6,30.02,SE,135,0.0,0.0,72,0.00,,,0.00,WeatherDisplay:10.37,2013-07-30 05:13:00,
2013-07-30 01:18:00,65.5,56.2,30.02,SE,135,0.0,0.0,72,0.00,,,0.00,WeatherDisplay:10.37,2013-07-30 05:18:00,
2013-07-30 01:23:00,65.1,55.9,30.02,SE,135,0.0,0.0,72,0.00,,,0.00,WeatherDisplay:10.37,2013-07-30 05:23:00,
2013-07-30 01:28:00,64.9,55.7,30.01,SE,136,0.0,0.0,72,0.00,,,0.00,WeatherDisplay:10.37,2013-07-30 05:28:00,
2013-07-30 01:33:00,64.8,55.9,30.01,SE,135,0.0,0.0,73,0.00,,,0.00,WeatherDisplay:10.37,2013-07-30 05:33:00,
2013-07-30 01:38:00,64.4,55.6,30.01,SE,135,0.0,0.0,73,0.00,,,0.00,WeatherDisplay:10.37,2013-07-30 05:38:00,
2013-07-30 01:43:00,64.2,55.4,30.01,SE,135,0.0,0.0,73,0.00,,,0.00,WeatherDisplay:10.37,2013-07-30 05:43:00,
2013-07-30 01:48:00,64.2,55.4,30.01,SE,135,0.0,0.0,73,0.00,,,0.00,WeatherDisplay:10.37,2013-07-30 05:48:00,
2013-07-30 01:53:00,64.0,55.6,30.02,SE,135,0.0,0.0,74,0.00,,,0.00,WeatherDisplay:10.37,2013-07-30 05:53:00,
2013-07-30 01:58:00,63.7,55.2,30.01,SE,135,0.0,0.0,74,0.00,,,0.00,WeatherDisplay:10.37,2013-07-30 05:58:00,
2013-07-30 02:03:00,63.5,55.4,30.01,SE,135,0.0,0.0,75,0.00,,,0.00,WeatherDisplay:10.37,2013-07-30 06:03:00,
2013-07-30 02:08:00,63.1,55.1,30.01,SE,135,0.0,0.0,75,0.00,,,0.00,WeatherDisplay:10.37,2013-07-30 06:08:00,
2013-07-30 02:13:00,63.1,55.1,30.01,SE,135,0.0,0.0,75,0.00,,,0.00,WeatherDisplay:10.37,2013-07-30 06:13:00,
2013-07-30 02:18:00,63.1,55.1,30.01,SE,135,0.0,0.0,75,0.00,,,0.00,WeatherDisplay:10.37,2013-07-30 06:18:00,
2013-07-30 02:23:00,63.1,55.1,30.01,SE,135,0.0,0.0,75,0.00,,,0.00,WeatherDisplay:10.37,2013-07-30 06:23:00,
2013-07-30 02:28:00,63.1,55.1,30.01,SE,135,0.0,0.0,75,0.00,,,0.00,WeatherDisplay:10.37,2013-07-30 06:28:00,
2013-07-30 02:33:00,63.1,55.1,30.00,SE,135,0.0,0.0,75,0.00,,,0.00,WeatherDisplay:10.37,2013-07-30 06:33:00,
2013-07-30 02:38:00,63.1,55.1,30.00,SE,135,0.0,0.0,75,0.00,,,0.00,WeatherDisplay:10.37,2013-07-30 06:38:00,
2013-07-30 02:43:00,63.1,55.1,30.00,SE,135,0.0,0.0,75,0.00,,,0.00,WeatherDisplay:10.37,2013-07-30 06:43:00,
2013-07-30 02:48:00,63.1,55.4,30.00,SE,135,0.0,0.0,76,0.00,,,0.00,WeatherDisplay:10.37,2013-07-30 06:48:00,
2013-07-30 02:53:00,63.1,55.4,30.00,SE,135,0.0,0.0,76,0.00,,,0.00,WeatherDisplay:10.37,2013-07-30 06:53:00,
2013-07-30 02:58:00,63.1,55.4,30.00,SE,135,0.0,0.0,76,0.00,,,0.00,WeatherDisplay:10.37,2013-07-30 06:58:00,
2013-07-30 03:03:00,63.0,55.6,30.00,SE,135,0.0,0.0,77,0.00,,,0.00,WeatherDisplay:10.37,2013-07-30 07:03:00,
2013-07-30 03:08:00,62.8,55.5,30.01,SE,135,0.0,0.0,77,0.00,,,0.00,WeatherDisplay:10.37,2013-07-30 07:08:00,
2013-07-30 03:13:00,62.6,55.3,30.00,SE,135,0.0,0.0,77,0.00,,,0.00,WeatherDisplay:10.37,2013-07-30 07:13:00,
2013-07-30 03:18:00,62.4,55.1,30.00,SE,135,0.0,0.0,77,0.00,,,0.00,WeatherDisplay:10.37,2013-07-30 07:18:00,
2013-07-30 03:23:00,62.4,55.1,30.00,SE,135,0.0,0.0,77,0.00,,,0.00,WeatherDisplay:10.37,2013-07-30 07:23:00,
2013-07-30 03:28:00,62.2,54.9,30.00,SE,135,0.0,0.0,77,0.00,,,0.00,WeatherDisplay:10.37,2013-07-30 07:28:00,
2013-07-30 03:33:00,62.2,54.9,30.00,SE,135,0.0,0.0,77,0.00,,,0.00,WeatherDisplay:10.37,2013-07-30 07:33:00,
2013-07-30 03:39:00,62.1,54.8,30.00,SE,135,0.0,0.0,77,0.00,,,0.00,WeatherDisplay:10.37,2013-07-30 07:39:00,
2013-07-30 03:44:00,62.1,54.8,30.00,SE,135,0.0,0.0,77,0.00,,,0.00,WeatherDisplay:10.37,2013-07-30 07:44:00,
2013-07-30 03:49:00,61.9,54.6,29.99,SE,135,0.0,0.0,77,0.00,,,0.00,WeatherDisplay:10.37,2013-07-30 07:49:00,
2013-07-30 03:54:00,62.1,55.1,29.99,SE,135,0.0,0.0,78,0.00,,,0.00,WeatherDisplay:10.37,2013-07-30 07:54:00,
2013-07-30 03:59:00,61.9,54.9,29.99,SE,135,0.0,0.0,78,0.00,,,0.00,WeatherDisplay:10.37,2013-07-30 07:59:00,
2013-07-30 04:04:00,61.9,54.9,30.00,SE,135,0.0,0.0,78,0.00,,,0.00,WeatherDisplay:10.37,2013-07-30 08:04:00,
2013-07-30 04:09:00,61.9,54.9,30.00,SE,135,0.0,0.0,78,0.00,,,0.00,WeatherDisplay:10.37,2013-07-30 08:09:00,
2013-07-30 04:14:00,61.7,54.8,30.00,SE,135,0.0,0.0,78,0.00,,,0.00,WeatherDisplay:10.37,2013-07-30 08:14:00,
2013-07-30 04:19:00,61.7,54.8,30.00,SE,135,0.0,0.0,78,0.00,,,0.00,WeatherDisplay:10.37,2013-07-30 08:19:00,
2013-07-30 04:24:00,61.5,54.6,30.00,SE,135,0.0,0.0,78,0.00,,,0.00,WeatherDisplay:10.37,2013-07-30 08:24:00,
2013-07-30 04:29:00,61.5,54.2,30.00,SE,135,0.0,0.0,77,0.00,,,0.00,WeatherDisplay:10.37,2013-07-30 08:29:00,
2013-07-30 04:34:00,61.5,54.6,30.00,SE,135,0.0,0.0,78,0.00,,,0.00,WeatherDisplay:10.37,2013-07-30 08:34:00,
2013-07-30 04:39:00,61.5,54.6,30.00,SE,135,0.0,0.0,78,0.00,,,0.00,WeatherDisplay:10.37,2013-07-30 08:39:00,
2013-07-30 04:44:00,61.5,54.6,30.00,SE,135,0.0,0.0,78,0.00,,,0.00,WeatherDisplay:10.37,2013-07-30 08:44:00,
2013-07-30 04:49:00,61.5,54.6,30.00,SE,135,0.0,0.0,78,0.00,,,0.00,WeatherDisplay:10.37,2013-07-30 08:49:00,
2013-07-30 04:54:00,61.7,54.8,30.00,SE,135,0.0,0.0,78,0.00,,,0.00,WeatherDisplay:10.37,2013-07-30 08:54:00,
2013-07-30 04:59:00,61.7,54.8,30.00,SE,135,0.0,0.0,78,0.00,,,0.00,WeatherDisplay:10.37,2013-07-30 08:59:00,
2013-07-30 05:04:00,61.7,54.8,30.01,SE,135,0.0,0.0,78,0.00,,,0.00,WeatherDisplay:10.37,2013-07-30 09:04:00,
2013-07-30 05:09:00,61.7,54.8,30.01,SE,135,0.0,0.0,78,0.00,,,0.00,WeatherDisplay:10.37,2013-07-30 09:09:00,
2013-07-30 05:14:00,61.7,54.8,30.01,SE,135,0.0,0.0,78,0.00,,,0.00,WeatherDisplay:10.37,2013-07-30 09:14:00,
2013-07-30 05:19:00,61.7,54.8,30.01,SE,135,0.0,0.0,78,0.00,,,0.00,WeatherDisplay:10.37,2013-07-30 09:19:00,
2013-07-30 05:24:00,61.7,55.1,30.01,SE,135,0.0,0.0,79,0.00,,,0.00,WeatherDisplay:10.37,2013-07-30 09:24:00,
2013-07-30 05:29:00,61.7,55.1,30.01,SE,135,0.0,0.0,79,0.00,,,0.00,WeatherDisplay:10.37,2013-07-30 09:29:00,
2013-07-30 05:34:00,61.5,54.9,30.01,SE,135,0.0,0.0,79,0.00,,,0.00,WeatherDisplay:10.37,2013-07-30 09:34:00,
2013-07-30 05:39:00,61.5,54.9,30.01,SE,135,0.0,0.0,79,0.00,,,0.00,WeatherDisplay:10.37,2013-07-30 09:39:00,
2013-07-30 05:44:00,61.5,54.9,30.01,SE,135,0.0,0.0,79,0.00,,,0.00,WeatherDisplay:10.37,2013-07-30 09:44:00,
2013-07-30 05:49:00,61.3,55.1,30.02,SE,135,0.0,0.0,80,0.00,,,0.00,WeatherDisplay:10.37,2013-07-30 09:49:00,
2013-07-30 05:54:00,61.3,55.1,30.01,SE,135,0.0,0.0,80,0.00,,,0.00,WeatherDisplay:10.37,2013-07-30 09:54:00,
2013-07-30 05:59:00,61.2,54.9,30.01,SE,135,0.0,0.0,80,0.00,,,0.00,WeatherDisplay:10.37,2013-07-30 09:59:00,
2013-07-30 06:04:00,61.2,54.9,30.01,SE,135,0.0,0.0,80,0.00,,,0.00,WeatherDisplay:10.37,2013-07-30 10:04:00,
2013-07-30 06:09:00,61.2,54.9,30.02,SE,135,0.0,0.0,80,0.00,,,0.00,WeatherDisplay:10.37,2013-07-30 10:09:00,
2013-07-30 06:14:00,61.2,55.3,30.02,SE,135,0.0,0.0,81,0.00,,,0.00,WeatherDisplay:10.37,2013-07-30 10:14:00,
2013-07-30 06:19:00,61.0,55.1,30.01,SE,135,0.0,0.0,81,0.00,,,0.00,WeatherDisplay:10.37,2013-07-30 10:19:00,
2013-07-30 06:24:00,61.0,55.1,30.02,SE,135,0.0,0.0,81,0.00,,,0.00,WeatherDisplay:10.37,2013-07-30 10:24:00,
2013-07-30 06:29:00,60.6,54.4,30.02,SE,135,0.0,0.0,80,0.00,,,0.00,WeatherDisplay:10.37,2013-07-30 10:29:00,
2013-07-30 06:34:00,60.6,54.4,30.02,SE,135,0.0,0.0,80,0.00,,,0.00,WeatherDisplay:10.37,2013-07-30 10:34:00,
2013-07-30 06:39:00,60.6,54.4,30.02,SE,135,0.0,0.0,80,0.00,,,0.00,WeatherDisplay:10.37,2013-07-30 10:39:00,
2013-07-30 06:44:00,60.6,54.4,30.02,SE,135,0.0,0.0,80,0.00,,,0.00,WeatherDisplay:10.37,2013-07-30 10:44:00,
2013-07-30 06:49:00,60.6,54.4,30.02,SE,135,0.0,0.0,80,0.00,,,0.00,WeatherDisplay:10.37,2013-07-30 10:49:00,
2013-07-30 06:54:00,60.6,54.8,30.02,SE,135,0.0,0.0,81,0.00,,,0.00,WeatherDisplay:10.37,2013-07-30 10:54:00,
2013-07-30 06:59:00,60.8,54.9,30.02,SE,135,0.0,0.0,81,0.00,,,0.00,WeatherDisplay:10.37,2013-07-30 10:59:00,
2013-07-30 07:04:00,60.6,54.8,30.02,SE,135,0.0,0.0,81,0.00,,,0.00,WeatherDisplay:10.37,2013-07-30 11:04:00,
2013-07-30 07:09:00,60.6,54.8,30.02,SE,135,0.0,0.0,81,0.00,,,0.00,WeatherDisplay:10.37,2013-07-30 11:09:00,
2013-07-30 07:14:00,60.6,54.8,30.02,SE,135,0.0,0.0,81,0.00,,,0.00,WeatherDisplay:10.37,2013-07-30 11:14:00,
2013-07-30 07:19:00,61.0,55.1,30.02,SE,135,0.0,0.0,81,0.00,,,0.00,WeatherDisplay:10.37,2013-07-30 11:19:00,
2013-07-30 07:24:00,61.0,55.1,30.03,SE,135,0.0,0.0,81,0.00,,,0.00,WeatherDisplay:10.37,2013-07-30 11:24:00,
2013-07-30 07:29:00,61.0,55.1,30.03,SE,135,0.0,0.0,81,0.00,,,0.00,WeatherDisplay:10.37,2013-07-30 11:29:00,
2013-07-30 07:34:00,61.2,55.6,30.03,SE,135,0.0,0.0,82,0.00,,,0.00,WeatherDisplay:10.37,2013-07-30 11:34:00,
2013-07-30 07:39:00,61.3,55.8,30.03,SE,135,0.0,0.0,82,0.00,,,0.00,WeatherDisplay:10.37,2013-07-30 11:39:00,
2013-07-30 07:44:00,61.3,55.8,30.03,SE,135,0.0,0.0,82,0.00,,,0.00,WeatherDisplay:10.37,2013-07-30 11:44:00,
2013-07-30 07:49:00,61.3,55.8,30.03,SE,135,0.0,0.0,82,0.00,,,0.00,WeatherDisplay:10.37,2013-07-30 11:49:00,
2013-07-30 07:54:00,61.3,55.8,30.03,SE,135,0.0,0.0,82,0.00,,,0.00,WeatherDisplay:10.37,2013-07-30 11:54:00,
2013-07-30 07:59:00,61.3,55.8,30.03,SE,135,0.0,0.0,82,0.00,,,0.00,WeatherDisplay:10.37,2013-07-30 11:59:00,
2013-07-30 08:04:00,61.3,56.1,30.03,SE,135,0.0,0.0,83,0.00,,,0.00,WeatherDisplay:10.37,2013-07-30 12:04:00,
2013-07-30 08:09:00,61.3,56.1,30.03,SE,135,0.0,0.0,83,0.00,,,0.00,WeatherDisplay:10.37,2013-07-30 12:09:00,
2013-07-30 08:14:00,61.5,56.3,30.03,SE,135,0.0,0.0,83,0.00,,,0.00,WeatherDisplay:10.37,2013-07-30 12:14:00,
2013-07-30 08:19:00,61.5,56.3,30.03,SE,135,0.0,0.0,83,0.00,,,0.00,WeatherDisplay:10.37,2013-07-30 12:19:00,
2013-07-30 08:24:00,61.5,56.3,30.03,SE,135,0.0,0.0,83,0.00,,,0.00,WeatherDisplay:10.37,2013-07-30 12:24:00,
2013-07-30 08:29:00,61.5,56.3,30.04,SE,135,0.0,0.0,83,0.00,,,0.00,WeatherDisplay:10.37,2013-07-30 12:29:00,
2013-07-30 08:34:00,61.9,56.7,30.04,SE,135,0.0,0.0,83,0.00,,,0.00,WeatherDisplay:10.37,2013-07-30 12:34:00,
2013-07-30 08:39:00,61.9,57.0,30.03,SE,135,0.0,0.0,84,0.00,,,0.00,WeatherDisplay:10.37,2013-07-30 12:39:00,
2013-07-30 08:44:00,62.1,57.2,30.04,SE,135,0.0,0.0,84,0.00,,,0.00,WeatherDisplay:10.37,2013-07-30 12:44:00,
2013-07-30 08:49:00,62.2,57.3,30.04,SE,135,0.0,0.0,84,0.00,,,0.00,WeatherDisplay:10.37,2013-07-30 12:49:00,
2013-07-30 08:54:00,62.4,57.5,30.04,SE,135,0.0,0.0,84,0.00,,,0.00,WeatherDisplay:10.37,2013-07-30 12:54:00,
2013-07-30 08:59:00,62.4,57.5,30.04,SE,135,0.0,0.0,84,0.00,,,0.00,WeatherDisplay:10.37,2013-07-30 12:59:00,
2013-07-30 09:04:00,62.4,57.5,30.04,SE,135,0.0,0.0,84,0.00,,,0.00,WeatherDisplay:10.37,2013-07-30 13:04:00,
2013-07-30 09:09:00,62.8,57.9,30.04,SE,135,0.0,0.0,84,0.00,,,0.00,WeatherDisplay:10.37,2013-07-30 13:09:00,
2013-07-30 09:14:00,63.0,58.0,30.04,SE,135,0.0,0.0,84,0.00,,,0.00,WeatherDisplay:10.37,2013-07-30 13:14:00,
2013-07-30 09:19:00,63.3,58.7,30.04,SE,135,0.0,0.0,85,0.00,,,0.00,WeatherDisplay:10.37,2013-07-30 13:19:00,
2013-07-30 09:24:00,63.7,59.1,30.04,SE,135,0.0,0.0,85,0.00,,,0.00,WeatherDisplay:10.37,2013-07-30 13:24:00,
2013-07-30 09:29:00,64.0,59.4,30.04,SE,135,0.0,0.0,85,0.00,,,0.00,WeatherDisplay:10.37,2013-07-30 13:29:00,
2013-07-30 09:34:00,64.2,59.3,30.04,SE,135,0.0,0.0,84,0.00,,,0.00,WeatherDisplay:10.37,2013-07-30 13:34:00,
2013-07-30 09:39:00,64.6,59.3,30.05,SE,135,0.0,0.0,83,0.00,,,0.00,WeatherDisplay:10.37,2013-07-30 13:39:00,
2013-07-30 09:44:00,64.9,59.7,30.05,SE,135,0.0,0.0,83,0.00,,,0.00,WeatherDisplay:10.37,2013-07-30 13:44:00,
2013-07-30 09:49:00,65.1,59.8,30.05,SE,135,0.0,0.0,83,0.00,,,0.00,WeatherDisplay:10.37,2013-07-30 13:49:00,
2013-07-30 09:54:00,65.5,59.8,30.05,SE,135,0.0,0.0,82,0.00,,,0.00,WeatherDisplay:10.37,2013-07-30 13:54:00,
2013-07-30 09:59:00,65.8,60.2,30.05,SE,135,0.0,0.0,82,0.00,,,0.00,WeatherDisplay:10.37,2013-07-30 13:59:00,
2013-07-30 10:04:00,66.0,60.4,30.04,SE,135,0.0,0.0,82,0.00,,,0.00,WeatherDisplay:10.37,2013-07-30 14:04:00,
2013-07-30 10:09:00,66.2,60.2,30.04,SE,135,0.0,0.0,81,0.00,,,0.00,WeatherDisplay:10.37,2013-07-30 14:09:00,
2013-07-30 10:14:00,66.4,60.4,30.04,SE,135,0.0,0.0,81,0.00,,,0.00,WeatherDisplay:10.37,2013-07-30 14:14:00,
2013-07-30 10:19:00,66.6,60.5,30.04,South,180,0.0,0.0,81,0.00,,,0.00,WeatherDisplay:10.37,2013-07-30 14:19:00,
2013-07-30 10:24:00,66.7,60.7,30.04,South,180,0.0,0.0,81,0.00,,,0.00,WeatherDisplay:10.37,2013-07-30 14:24:00,
2013-07-30 10:29:00,67.1,61.1,30.04,SSW,202,0.0,0.0,81,0.00,,,0.00,WeatherDisplay:10.37,2013-07-30 14:29:00,
2013-07-30 10:34:00,67.3,61.2,30.04,SSW,202,0.0,0.0,81,0.00,,,0.00,WeatherDisplay:10.37,2013-07-30 14:34:00,
2013-07-30 10:39:00,67.6,61.6,30.04,South,180,0.0,0.0,81,0.00,,,0.00,WeatherDisplay:10.37,2013-07-30 14:39:00,
2013-07-30 10:44:00,67.8,61.8,30.03,South,180,0.0,0.0,81,0.00,,,0.00,WeatherDisplay:10.37,2013-07-30 14:44:00,
2013-07-30 10:49:00,68.2,62.1,30.03,South,180,0.0,0.0,81,0.00,,,0.00,WeatherDisplay:10.37,2013-07-30 14:49:00,
2013-07-30 10:54:00,68.7,62.7,30.03,SW,225,0.0,0.0,81,0.00,,,0.00,WeatherDisplay:10.37,2013-07-30 14:54:00,
2013-07-30 10:59:00,68.9,63.2,30.03,SW,225,0.0,0.0,82,0.00,,,0.00,WeatherDisplay:10.37,2013-07-30 14:59:00,
2013-07-30 11:04:00,69.3,63.5,30.03,South,180,0.0,0.0,82,0.00,,,0.00,WeatherDisplay:10.37,2013-07-30 15:04:00,
2013-07-30 11:09:00,69.6,63.5,30.03,South,180,0.0,0.0,81,0.00,,,0.00,WeatherDisplay:10.37,2013-07-30 15:09:00,
2013-07-30 11:14:00,70.0,63.9,30.03,SSW,202,0.0,0.0,81,0.00,,,0.00,WeatherDisplay:10.37,2013-07-30 15:14:00,
2013-07-30 11:19:00,70.3,64.2,30.03,SSW,202,0.0,0.0,81,0.00,,,0.00,WeatherDisplay:10.37,2013-07-30 15:19:00,
2013-07-30 11:24:00,70.5,64.4,30.03,SW,225,0.0,0.0,81,0.00,,,0.00,WeatherDisplay:10.37,2013-07-30 15:24:00,
2013-07-30 11:29:00,71.2,65.1,30.03,SSE,158,0.0,0.0,81,0.00,,,0.00,WeatherDisplay:10.37,2013-07-30 15:29:00,
2013-07-30 11:34:00,71.4,64.9,30.03,SW,225,0.0,0.0,80,0.00,,,0.00,WeatherDisplay:10.37,2013-07-30 15:34:00,
2013-07-30 11:39:00,71.8,65.3,30.03,SW,225,0.0,0.0,80,0.00,,,0.00,WeatherDisplay:10.37,2013-07-30 15:39:00,
2013-07-30 11:44:00,72.0,65.5,30.03,SW,225,0.0,0.0,80,0.00,,,0.00,WeatherDisplay:10.37,2013-07-30 15:44:00,
2013-07-30 11:49:00,72.1,65.6,30.02,South,180,0.0,0.0,80,0.00,,,0.00,WeatherDisplay:10.37,2013-07-30 15:49:00,
2013-07-30 11:54:00,72.5,65.6,30.03,South,180,0.0,0.0,79,0.00,,,0.00,WeatherDisplay:10.37,2013-07-30 15:54:00,
2013-07-30 11:59:00,73.0,66.1,30.03,South,180,0.0,0.0,79,0.00,,,0.00,WeatherDisplay:10.37,2013-07-30 15:59:00,
2013-07-30 12:04:00,73.2,65.6,30.02,SSE,158,0.0,0.0,77,0.00,,,0.00,WeatherDisplay:10.37,2013-07-30 16:04:00,
2013-07-30 12:09:00,73.8,66.1,30.02,ESE,112,0.0,0.0,77,0.00,,,0.00,WeatherDisplay:10.37,2013-07-30 16:09:00,
2013-07-30 12:14:00,74.3,67.0,30.02,SW,225,0.0,0.0,78,0.00,,,0.00,WeatherDisplay:10.37,2013-07-30 16:14:00,
2013-07-30 12:19:00,75.4,67.7,30.02,SSW,202,0.0,0.0,77,0.00,,,0.00,WeatherDisplay:10.37,2013-07-30 16:19:00,
2013-07-30 12:24:00,75.7,67.2,30.02,SSW,202,0.0,0.0,75,0.00,,,0.00,WeatherDisplay:10.37,2013-07-30 16:24:00,
2013-07-30 12:29:00,76.1,68.0,30.02,SSE,158,0.0,0.0,76,0.00,,,0.00,WeatherDisplay:10.37,2013-07-30 16:29:00,
2013-07-30 12:34:00,76.6,68.1,30.01,South,180,0.0,0.0,75,0.00,,,0.00,WeatherDisplay:10.37,2013-07-30 16:34:00,
2013-07-30 12:39:00,76.8,67.9,30.02,SSE,158,0.0,0.0,74,0.00,,,0.00,WeatherDisplay:10.37,2013-07-30 16:39:00,
2013-07-30 12:44:00,77.4,68.4,30.02,South,180,0.0,0.0,74,0.00,,,0.00,WeatherDisplay:10.37,2013-07-30 16:44:00,
2013-07-30 12:49:00,77.9,68.9,30.02,South,180,0.0,0.0,74,0.00,,,0.00,WeatherDisplay:10.37,2013-07-30 16:49:00,
2013-07-30 12:54:00,78.8,69.4,30.02,SSW,202,0.0,0.0,73,0.00,,,0.00,WeatherDisplay:10.37,2013-07-30 16:54:00,
2013-07-30 12:59:00,79.0,68.8,30.01,SSW,202,0.0,0.0,71,0.00,,,0.00,WeatherDisplay:10.37,2013-07-30 16:59:00,
2013-07-30 13:04:00,79.3,69.5,30.01,SSE,158,0.0,0.0,72,0.00,,,0.00,WeatherDisplay:10.37,2013-07-30 17:04:00,
2013-07-30 13:09:00,79.7,69.9,30.02,South,180,0.0,0.0,72,0.00,,,0.00,WeatherDisplay:10.37,2013-07-30 17:09:00,
2013-07-30 13:14:00,80.4,70.2,30.01,SW,225,0.0,0.0,71,0.00,,,0.00,WeatherDisplay:10.37,2013-07-30 17:14:00,
2013-07-30 13:19:00,81.1,70.8,30.01,SE,135,0.0,0.0,71,0.00,,,0.00,WeatherDisplay:10.37,2013-07-30 17:19:00,
2013-07-30 13:24:00,82.2,71.5,30.02,South,180,0.0,0.0,70,0.00,,,0.00,WeatherDisplay:10.37,2013-07-30 17:24:00,
2013-07-30 13:29:00,82.9,70.9,30.01,South,180,0.0,0.0,67,0.00,,,0.00,WeatherDisplay:10.37,2013-07-30 17:29:00,
2013-07-30 13:34:00,83.5,70.9,30.01,SSW,202,0.0,0.0,66,0.00,,,0.00,WeatherDisplay:10.37,2013-07-30 17:34:00,
2013-07-30 13:39:00,84.0,71.0,30.01,South,180,0.0,0.0,65,0.00,,,0.00,WeatherDisplay:10.37,2013-07-30 17:39:00,
2013-07-30 13:44:00,84.0,71.0,30.01,SW,225,0.0,0.0,65,0.00,,,0.00,WeatherDisplay:10.37,2013-07-30 17:44:00,
2013-07-30 13:49:00,83.5,70.5,30.01,SSW,202,0.0,0.0,65,0.00,,,0.00,WeatherDisplay:10.37,2013-07-30 17:49:00,
2013-07-30 13:54:00,83.1,70.1,30.01,South,180,0.0,0.0,65,0.00,,,0.00,WeatherDisplay:10.37,2013-07-30 17:54:00,
2013-07-30 13:59:00,83.1,70.6,30.01,SSE,158,0.0,0.0,66,0.00,,,0.00,WeatherDisplay:10.37,2013-07-30 17:59:00,
2013-07-30 14:04:00,82.8,69.8,30.00,SE,135,0.0,0.0,65,0.00,,,0.00,WeatherDisplay:10.37,2013-07-30 18:04:00,
2013-07-30 14:09:00,82.6,70.1,30.00,South,180,0.0,0.0,66,0.00,,,0.00,WeatherDisplay:10.37,2013-07-30 18:09:00,
2013-07-30 14:14:00,82.9,70.4,30.00,South,180,0.0,0.0,66,0.00,,,0.00,WeatherDisplay:10.37,2013-07-30 18:14:00,
2013-07-30 14:19:00,83.1,70.1,30.00,South,180,0.0,0.0,65,0.00,,,0.00,WeatherDisplay:10.37,2013-07-30 18:19:00,
2013-07-30 14:24:00,83.1,70.6,30.00,SW,225,0.0,0.0,66,0.00,,,0.00,WeatherDisplay:10.37,2013-07-30 18:24:00,
2013-07-30 14:29:00,82.9,70.0,30.00,SSW,202,0.0,0.0,65,0.00,,,0.00,WeatherDisplay:10.37,2013-07-30 18:29:00,
2013-07-30 14:34:00,82.8,70.2,30.00,SW,225,0.0,0.0,66,0.00,,,0.00,WeatherDisplay:10.37,2013-07-30 18:34:00,
2013-07-30 14:39:00,82.2,69.7,30.00,SW,218,0.0,0.0,66,0.00,,,0.00,WeatherDisplay:10.37,2013-07-30 18:39:00,
2013-07-30 14:44:00,81.9,69.8,30.00,SW,220,0.0,0.0,67,0.00,,,0.00,WeatherDisplay:10.37,2013-07-30 18:44:00,
2013-07-30 14:49:00,81.3,69.3,30.00,SSW,202,0.0,0.0,67,0.00,,,0.00,WeatherDisplay:10.37,2013-07-30 18:49:00,
2013-07-30 14:54:00,81.1,69.1,30.00,South,181,0.0,0.0,67,0.00,,,0.00,WeatherDisplay:10.37,2013-07-30 18:54:00,
2013-07-30 14:59:00,80.7,69.2,30.00,South,179,0.0,0.0,68,0.00,,,0.00,WeatherDisplay:10.37,2013-07-30 18:59:00,
2013-07-30 15:04:00,80.4,69.3,30.00,South,185,0.0,0.0,69,0.00,,,0.00,WeatherDisplay:10.37,2013-07-30 19:04:00,
2013-07-30 15:09:00,80.2,69.5,30.00,SSW,203,0.0,0.0,70,0.00,,,0.00,WeatherDisplay:10.37,2013-07-30 19:09:00,
2013-07-30 15:14:00,80.2,69.6,29.99,SSW,198,0.0,0.0,70,0.00,,,0.00,WeatherDisplay:10.37,2013-07-30 19:14:00,
2013-07-30 15:19:00,80.6,69.9,29.99,SW,225,0.0,0.0,70,0.00,,,0.00,WeatherDisplay:10.37,2013-07-30 19:19:00,
2013-07-30 15:24:00,80.6,69.9,30.00,South,180,0.0,0.0,70,0.00,,,0.00,WeatherDisplay:10.37,2013-07-30 19:24:00,
2013-07-30 15:29:00,80.2,69.6,30.00,South,180,0.0,0.0,70,0.00,,,0.00,WeatherDisplay:10.37,2013-07-30 19:29:00,
2013-07-30 15:34:00,79.7,69.0,30.00,SSW,202,0.0,0.0,70,0.00,,,0.00,WeatherDisplay:10.37,2013-07-30 19:34:00,
2013-07-30 15:39:00,79.2,68.5,30.00,SSW,202,0.0,0.0,70,0.00,,,0.00,WeatherDisplay:10.37,2013-07-30 19:39:00,
2013-07-30 15:44:00,78.6,68.4,30.00,South,180,0.0,0.0,71,0.00,,,0.00,WeatherDisplay:10.37,2013-07-30 19:44:00,
2013-07-30 15:49:00,78.3,68.1,30.00,SSE,158,0.0,0.0,71,0.00,,,0.00,WeatherDisplay:10.37,2013-07-30 19:49:00,
2013-07-30 15:54:00,78.8,69.0,29.99,SSE,158,0.0,0.0,72,0.00,,,0.00,WeatherDisplay:10.37,2013-07-30 19:54:00,
2013-07-30 15:59:00,79.7,69.8,29.99,South,178,0.0,0.0,72,0.00,,,0.00,WeatherDisplay:10.37,2013-07-30 19:59:00,
2013-07-30 16:04:00,80.2,70.4,29.99,South,183,0.0,0.0,72,0.00,,,0.00,WeatherDisplay:10.37,2013-07-30 20:04:00,
2013-07-30 16:09:00,80.2,70.0,29.99,SSE,161,0.0,0.0,71,0.00,,,0.00,WeatherDisplay:10.37,2013-07-30 20:09:00,
2013-07-30 16:14:00,79.9,69.6,30.00,SSE,161,0.0,0.0,71,0.00,,,0.00,WeatherDisplay:10.37,2013-07-30 20:14:00,
2013-07-30 16:19:00,79.5,69.3,30.00,South,177,0.0,0.0,71,0.00,,,0.00,WeatherDisplay:10.37,2013-07-30 20:19:00,
2013-07-30 16:24:00,79.2,68.9,30.00,South,184,0.0,0.0,71,0.00,,,0.00,WeatherDisplay:10.37,2013-07-30 20:24:00,
2013-07-30 16:29:00,79.0,69.2,29.99,South,180,0.0,0.0,72,0.00,,,0.00,WeatherDisplay:10.37,2013-07-30 20:29:00,
2013-07-30 16:34:00,79.1,69.7,29.99,South,180,0.0,0.0,73,0.00,,,0.00,WeatherDisplay:10.37,2013-07-30 20:34:00,
2013-07-30 16:39:00,79.3,69.9,29.99,South,188,0.0,0.0,73,0.00,,,0.00,WeatherDisplay:10.37,2013-07-30 20:39:00,
2013-07-30 16:44:00,79.3,69.9,29.99,SSW,212,0.0,0.0,73,0.00,,,0.00,WeatherDisplay:10.37,2013-07-30 20:44:00,
2013-07-30 16:49:00,79.1,69.3,29.99,SSW,208,0.0,0.0,72,0.00,,,0.00,WeatherDisplay:10.37,2013-07-30 20:49:00,
2013-07-30 16:54:00,78.6,68.8,29.99,South,185,0.0,0.0,72,0.00,,,0.00,WeatherDisplay:10.37,2013-07-30 20:54:00,
2013-07-30 16:59:00,78.2,68.8,29.99,South,180,0.0,0.0,73,0.00,,,0.00,WeatherDisplay:10.37,2013-07-30 20:59:00,
2013-07-30 17:04:00,77.9,68.9,29.99,South,180,0.0,0.0,74,0.00,,,0.00,WeatherDisplay:10.37,2013-07-30 21:04:00,
2013-07-30 17:09:00,77.7,68.8,29.99,South,180,0.0,0.0,74,0.00,,,0.00,WeatherDisplay:10.37,2013-07-30 21:09:00,
2013-07-30 17:14:00,77.7,69.2,29.99,South,180,0.0,0.0,75,0.00,,,0.00,WeatherDisplay:10.37,2013-07-30 21:14:00,
2013-07-30 17:19:00,77.8,69.2,29.99,South,180,0.0,0.0,75,0.00,,,0.00,WeatherDisplay:10.37,2013-07-30 21:19:00,
2013-07-30 17:24:00,77.7,69.2,30.00,South,180,0.0,0.0,75,0.00,,,0.00,WeatherDisplay:10.37,2013-07-30 21:24:00,
2013-07-30 17:29:00,77.5,69.0,29.99,South,180,0.0,0.0,75,0.00,,,0.00,WeatherDisplay:10.37,2013-07-30 21:29:00,
2013-07-30 17:34:00,77.5,69.0,30.00,South,180,0.0,0.0,75,0.00,,,0.00,WeatherDisplay:10.37,2013-07-30 21:34:00,
2013-07-30 17:39:00,77.2,69.0,30.00,South,180,0.0,0.0,76,0.00,,,0.00,WeatherDisplay:10.37,2013-07-30 21:39:00,
2013-07-30 17:44:00,77.1,69.0,29.99,South,181,0.0,0.0,76,0.00,,,0.00,WeatherDisplay:10.37,2013-07-30 21:44:00,
2013-07-30 17:49:00,77.0,68.8,29.99,SSW,194,0.0,0.0,76,0.00,,,0.00,WeatherDisplay:10.37,2013-07-30 21:49:00,
2013-07-30 17:54:00,76.8,69.1,29.99,SSW,202,0.0,0.0,77,0.00,,,0.00,WeatherDisplay:10.37,2013-07-30 21:54:00,
2013-07-30 17:59:00,76.8,69.1,29.99,SSW,202,0.0,0.0,77,0.00,,,0.00,WeatherDisplay:10.37,2013-07-30 21:59:00,
2013-07-30 18:04:00,76.8,69.1,29.99,SSW,202,0.0,0.0,77,0.00,,,0.00,WeatherDisplay:10.37,2013-07-30 22:04:00,
2013-07-30 18:09:00,76.8,69.1,29.99,SSW,202,0.0,0.0,77,0.00,,,0.00,WeatherDisplay:10.37,2013-07-30 22:09:00,
2013-07-30 18:15:00,76.8,69.1,29.99,SSW,202,0.0,0.0,77,0.00,,,0.00,WeatherDisplay:10.37,2013-07-30 22:15:00,
2013-07-30 18:20:00,76.5,68.7,29.99,SSW,202,0.0,0.0,77,0.00,,,0.00,WeatherDisplay:10.37,2013-07-30 22:20:00,
2013-07-30 18:25:00,76.3,68.5,29.99,SSW,202,0.0,0.0,77,0.00,,,0.00,WeatherDisplay:10.37,2013-07-30 22:25:00,
2013-07-30 18:30:00,76.1,68.7,29.99,SSW,202,0.0,0.0,78,0.00,,,0.00,WeatherDisplay:10.37,2013-07-30 22:30:00,
2013-07-30 18:35:00,76.1,68.7,29.99,SSW,202,0.0,0.0,78,0.00,,,0.00,WeatherDisplay:10.37,2013-07-30 22:35:00,
2013-07-30 18:40:00,75.9,68.6,29.99,SSW,202,0.0,0.0,78,0.00,,,0.00,WeatherDisplay:10.37,2013-07-30 22:40:00,
2013-07-30 18:45:00,75.9,68.6,29.99,SSW,202,0.0,0.0,78,0.00,,,0.00,WeatherDisplay:10.37,2013-07-30 22:45:00,
2013-07-30 18:50:00,75.7,68.8,29.99,SSW,202,0.0,0.0,79,0.00,,,0.00,WeatherDisplay:10.37,2013-07-30 22:50:00,
2013-07-30 18:55:00,75.6,68.6,29.98,SSW,202,0.0,0.0,79,0.00,,,0.00,WeatherDisplay:10.37,2013-07-30 22:55:00,
2013-07-30 19:00:00,75.4,68.0,29.99,SSW,202,0.0,0.0,78,0.00,,,0.00,WeatherDisplay:10.37,2013-07-30 23:00:00,
2013-07-30 19:05:00,75.4,68.4,29.98,SSW,202,0.0,0.0,79,0.00,,,0.00,WeatherDisplay:10.37,2013-07-30 23:05:00,
2013-07-30 19:10:00,75.0,68.1,29.98,SSW,202,0.0,0.0,79,0.00,,,0.00,WeatherDisplay:10.37,2013-07-30 23:10:00,
2013-07-30 19:15:00,75.0,68.1,29.99,SSW,202,0.0,0.0,79,0.00,,,0.00,WeatherDisplay:10.37,2013-07-30 23:15:00,
2013-07-30 19:20:00,75.0,68.1,29.99,SSW,202,0.0,0.0,79,0.00,,,0.00,WeatherDisplay:10.37,2013-07-30 23:20:00,
2013-07-30 19:25:00,74.8,67.9,29.99,SSW,202,0.0,0.0,79,0.00,,,0.00,WeatherDisplay:10.37,2013-07-30 23:25:00,
2013-07-30 19:30:00,74.5,67.5,29.99,SW,225,0.0,0.0,79,0.00,,,0.00,WeatherDisplay:10.37,2013-07-30 23:30:00,
2013-07-30 19:35:00,74.3,67.4,29.99,SW,225,0.0,0.0,79,0.00,,,0.00,WeatherDisplay:10.37,2013-07-30 23:35:00,
2013-07-30 19:40:00,74.1,67.2,29.99,SW,225,0.0,0.0,79,0.00,,,0.00,WeatherDisplay:10.37,2013-07-30 23:40:00,
2013-07-30 19:45:00,74.1,67.6,29.99,SW,225,0.0,0.0,80,0.00,,,0.00,WeatherDisplay:10.37,2013-07-30 23:45:00,
2013-07-30 19:50:00,74.1,67.6,29.99,SW,225,0.0,0.0,80,0.00,,,0.00,WeatherDisplay:10.37,2013-07-30 23:50:00,
2013-07-30 19:55:00,73.9,67.4,29.99,SW,225,0.0,0.0,80,0.00,,,0.00,WeatherDisplay:10.37,2013-07-30 23:55:00,
2013-07-30 20:00:00,73.8,67.2,29.99,SW,225,0.0,0.0,80,0.00,,,0.00,WeatherDisplay:10.37,2013-07-31 00:00:00,
2013-07-30 20:05:00,73.6,67.0,29.99,SW,225,0.0,0.0,80,0.00,,,0.00,WeatherDisplay:10.37,2013-07-31 00:05:00,
2013-07-30 20:10:00,73.6,67.0,29.99,SW,225,0.0,0.0,80,0.00,,,0.00,WeatherDisplay:10.37,2013-07-31 00:10:00,
2013-07-30 20:15:00,73.4,67.2,29.99,SW,225,0.0,0.0,81,0.00,,,0.00,WeatherDisplay:10.37,2013-07-31 00:15:00,
2013-07-30 20:20:00,73.0,66.9,29.99,SW,225,0.0,0.0,81,0.00,,,0.00,WeatherDisplay:10.37,2013-07-31 00:20:00,
2013-07-30 20:25:00,72.9,67.0,29.99,SW,225,0.0,0.0,82,0.00,,,0.00,WeatherDisplay:10.37,2013-07-31 00:25:00,
2013-07-30 20:30:00,72.7,66.9,30.00,SW,225,0.0,0.0,82,0.00,,,0.00,WeatherDisplay:10.37,2013-07-31 00:30:00,
2013-07-30 20:35:00,72.5,66.7,29.99,SW,225,0.0,0.0,82,0.00,,,0.00,WeatherDisplay:10.37,2013-07-31 00:35:00,
2013-07-30 20:40:00,72.3,66.5,30.00,SW,225,0.0,0.0,82,0.00,,,0.00,WeatherDisplay:10.37,2013-07-31 00:40:00,
2013-07-30 20:45:00,72.3,66.5,29.99,SW,225,0.0,0.0,82,0.00,,,0.00,WeatherDisplay:10.37,2013-07-31 00:45:00,
2013-07-30 20:50:00,72.1,66.7,29.99,SW,225,0.0,0.0,83,0.00,,,0.00,WeatherDisplay:10.37,2013-07-31 00:50:00,
2013-07-30 20:55:00,72.1,66.7,30.00,SW,225,0.0,0.0,83,0.00,,,0.00,WeatherDisplay:10.37,2013-07-31 00:55:00,
2013-07-30 21:00:00,72.1,66.7,30.00,SW,225,0.0,0.0,83,0.00,,,0.00,WeatherDisplay:10.37,2013-07-31 01:00:00,
2013-07-30 21:05:00,72.1,67.0,30.00,SW,225,0.0,0.0,84,0.00,,,0.00,WeatherDisplay:10.37,2013-07-31 01:05:00,
2013-07-30 21:10:00,72.0,66.9,30.00,SW,225,0.0,0.0,84,0.00,,,0.00,WeatherDisplay:10.37,2013-07-31 01:10:00,
2013-07-30 21:15:00,72.0,66.9,30.00,SW,225,0.0,0.0,84,0.00,,,0.00,WeatherDisplay:10.37,2013-07-31 01:15:00,
2013-07-30 21:20:00,72.0,66.9,30.00,SW,225,0.0,0.0,84,0.00,,,0.00,WeatherDisplay:10.37,2013-07-31 01:20:00,
2013-07-30 21:25:00,71.8,66.7,30.00,SW,225,0.0,0.0,84,0.00,,,0.00,WeatherDisplay:10.37,2013-07-31 01:25:00,
2013-07-30 21:30:00,71.8,66.7,30.00,SW,225,0.0,0.0,84,0.00,,,0.00,WeatherDisplay:10.37,2013-07-31 01:30:00,
2013-07-30 21:35:00,71.8,66.7,30.01,SW,225,0.0,0.0,84,0.00,,,0.00,WeatherDisplay:10.37,2013-07-31 01:35:00,
2013-07-30 21:40:00,71.8,66.7,30.01,SW,225,0.0,0.0,84,0.00,,,0.00,WeatherDisplay:10.37,2013-07-31 01:40:00,
2013-07-30 21:45:00,71.6,66.5,30.01,SW,225,0.0,0.0,84,0.00,,,0.00,WeatherDisplay:10.37,2013-07-31 01:45:00,
2013-07-30 21:50:00,71.4,66.7,30.01,SW,225,0.0,0.0,85,0.00,,,0.00,WeatherDisplay:10.37,2013-07-31 01:50:00,
2013-07-30 21:55:00,71.4,66.7,30.01,SW,225,0.0,0.0,85,0.00,,,0.00,WeatherDisplay:10.37,2013-07-31 01:55:00,
2013-07-30 22:00:00,71.4,66.7,30.01,SW,225,0.0,0.0,85,0.00,,,0.00,WeatherDisplay:10.37,2013-07-31 02:00:00,
2013-07-30 22:05:00,71.4,66.7,30.01,SW,225,0.0,0.0,85,0.00,,,0.00,WeatherDisplay:10.37,2013-07-31 02:05:00,
2013-07-30 22:10:00,71.2,66.5,30.01,SW,225,0.0,0.0,85,0.00,,,0.00,WeatherDisplay:10.37,2013-07-31 02:10:00,
2013-07-30 22:15:00,71.2,66.5,30.02,SW,225,0.0,0.0,85,0.00,,,0.00,WeatherDisplay:10.37,2013-07-31 02:15:00,
2013-07-30 22:20:00,71.1,66.3,30.02,SW,225,0.0,0.0,85,0.00,,,0.00,WeatherDisplay:10.37,2013-07-31 02:20:00,
2013-07-30 22:25:00,70.9,66.1,30.01,SW,225,0.0,0.0,85,0.00,,,0.00,WeatherDisplay:10.37,2013-07-31 02:25:00,
2013-07-30 22:30:00,70.9,66.1,30.01,SW,225,0.0,0.0,85,0.00,,,0.00,WeatherDisplay:10.37,2013-07-31 02:30:00,
2013-07-30 22:35:00,70.9,66.1,30.01,SW,225,0.0,0.0,85,0.00,,,0.00,WeatherDisplay:10.37,2013-07-31 02:35:00,
2013-07-30 22:40:00,70.9,66.1,30.01,SW,225,0.0,0.0,85,0.00,,,0.00,WeatherDisplay:10.37,2013-07-31 02:40:00,
2013-07-30 22:45:00,70.9,66.1,30.01,SW,225,0.0,0.0,85,0.00,,,0.00,WeatherDisplay:10.37,2013-07-31 02:45:00,
2013-07-30 22:50:00,70.9,66.1,30.01,SW,225,0.0,0.0,85,0.00,,,0.00,WeatherDisplay:10.37,2013-07-31 02:50:00,
2013-07-30 22:55:00,70.5,66.1,30.01,SW,225,0.0,0.0,86,0.00,,,0.00,WeatherDisplay:10.37,2013-07-31 02:55:00,
2013-07-30 23:00:00,70.5,66.1,30.01,SW,225,0.0,0.0,86,0.00,,,0.00,WeatherDisplay:10.37,2013-07-31 03:00:00,
2013-07-30 23:05:00,70.5,66.1,30.01,SW,225,0.0,0.0,86,0.00,,,0.00,WeatherDisplay:10.37,2013-07-31 03:05:00,
2013-07-30 23:10:00,70.5,66.1,30.01,SW,225,0.0,0.0,86,0.00,,,0.00,WeatherDisplay:10.37,2013-07-31 03:10:00,
2013-07-30 23:15:00,70.5,65.8,30.01,SW,225,0.0,0.0,85,0.00,,,0.00,WeatherDisplay:10.37,2013-07-31 03:15:00,
2013-07-30 23:20:00,70.5,65.8,30.02,SW,225,0.0,0.0,85,0.00,,,0.00,WeatherDisplay:10.37,2013-07-31 03:20:00,
2013-07-30 23:25:00,70.5,66.1,30.02,SW,225,0.0,0.0,86,0.00,,,0.00,WeatherDisplay:10.37,2013-07-31 03:25:00,
2013-07-30 23:30:00,70.5,65.8,30.02,SW,225,0.0,0.0,85,0.00,,,0.00,WeatherDisplay:10.37,2013-07-31 03:30:00,
2013-07-30 23:35:00,70.5,66.1,30.01,SW,225,0.0,0.0,86,0.00,,,0.00,WeatherDisplay:10.37,2013-07-31 03:35:00,
2013-07-30 23:40:00,70.3,66.0,30.01,SW,225,0.0,0.0,86,0.00,,,0.00,WeatherDisplay:10.37,2013-07-31 03:40:00,
2013-07-30 23:45:00,70.3,66.0,30.02,SW,225,0.0,0.0,86,0.00,,,0.00,WeatherDisplay:10.37,2013-07-31 03:45:00,
2013-07-30 23:50:00,70.3,66.0,30.02,SW,225,0.0,0.0,86,0.00,,,0.00,WeatherDisplay:10.37,2013-07-31 03:50:00,
2013-07-30 23:55:00,70.2,65.8,30.02,SW,225,0.0,0.0,86,0.00,,,0.00,WeatherDisplay:10.37,2013-07-31 03:55:00,